Find Starlink 6288

NORAD ID: 56398 Int'l Des: 2023-061 Owner: SPXS Country: US Constellation: starlink operational
LEOCIRCULAR

現在のビュー

3D地球を読み込み中...

About Starlink 6288

Starlink 6288 (NORAD 56398) is a starlink constellation satellite (v1.5) launched May 4, 2023 by SPXS of US. It operates in LEO, CIRCULAR orbit with a mass of 305.00 kg.

Starlink 6288について

説明を読み込み中...

次回通過

Passes for default location (London). Set your location on the main map for personalized predictions.

高度履歴

Loading altitude history...

軌道要素

1 56398U 23061AA 26195.26157650 -.00000153 00000-0 39781-5 0 9991
2 56398 43.0022 192.1008 0001480 266.4050 93.6633 15.27575778176234
Epoch: Jul 14, 2026 • Age: 13 hours

現在のステータス

高度 486.8 km
遠地点 / 近地点 N/A
速度 7.63 km/s
衛星直下点 41.22°N, 77.9°E
打ち上げ日 May 4, 2023
運用期間 3.1 years
タイプ internet

技術仕様

分類 Payload
質量 305.00 kg
乾燥質量 290.00 kg
総質量 305.00 kg
長さ 0.20 m
直径 2.80 m
スパン 9.00 m
形状 Box + pan
製造者 SPXS
バスタイプ Starlink
フェーズステータス In Orbit
所有者/国 SPXS/US

Most Searched